STARLINK-35960 (66531 NORAD) Tracking and Keplerian Element Data

This shows tracking and keplerian element data for the satellite.

Feedback or suggestion? Click here.




ElementValue
Catalog66531
NameSTARLINK-35960
Epoch Orbit490
Epoch Day354.16174864
Epoch Year2025
RAAN11.1413
Inclination43.0006
Eccentricity0.0001188
Argument of Perigee271.1434
Mean Anonmoly88.9287
Mean Motion15.40712606
Decay Rate0.00023319
L11 66531U 25265R 25354.16174864 .00023319 00000+0 56355-3 0 9991
L22 66531 43.0006 11.1413 0001188 271.1434 88.9287 15.40712606 4904



Live tracking and technical data element details for STARLINK-35960 (NORAD 66531). STARLINK-35960 can be tracked NOW for your location showing map with azimuth and elevation plus other details from your city location.







IsCatalogInMostPopularTable: catalog: 66531, numindb: 10
Update: records affected: 1



GetName: 66531 STARLINK-35960

Hit Count: updated at: Sat, 11 Apr 2026 21:31:06 GMT